星链-34362 (STARLINK-34362)

导读

STARLINK-34362是美国SpaceX星链计划中的一颗卫星,于2025年6月8日发射。作为星链星座的组成部分,它旨在为全球提供高速低延迟互联网覆盖,尤其服务偏远地区与网络基础设施薄弱区域。该卫星延续星链技术方案,依托大规模星座组网,助力全球互联网络覆盖能力的进一步拓展。

基本信息
目录编号:
64292
目录名称:
STARLINK-34362
国际标识:
2025-123B
轨道中心:
EARTH
卫星名称:
星链-34362
卫星全名:
星链-34362 (STARLINK-34362)
卫星状态:
在轨 (已飞行370 天)
发射日期:
2025-06-08 UTC
国别 :
美国 (US)
星等 :
--
轨道信息
数据来源 国际轨道数据 AOE轨道数据
星历时间 2026-06-13T22:31:26+0800
9小时前
查看轨道信息
2026-06-09T07:00:00+0800
5天前
查看轨道信息
半长轴 6950.184km 6950.277km
偏心率 0.000309 0.0003182
轨道倾角 70.002° 70.002°
近地点辐角 268.604° 274.631°
升交点赤经 312.705° 324.418°
平近点角 91.476° 227.645°
近地点 569.899km 569.928km
远地点 574.195km 574.352km
周期 96.107分钟 96.109分钟
每日圈数 14.983329 14.983031
详细信息
固有亮度:
5
最大亮度:
2.5
卫星平台:
Starlink V1.0
覆盖范围:
全球
运营商:
太空探索技术公司
运营商所在国:
美国
制造商(研发单位):
太空探索技术公司
制造商所在国:
美国
使用方式:
暂无
卫星简介
Starlink 计划是 SpaceX 推出的全球卫星互联网项目,通过发射低轨道卫星,为全球尤其是偏远地区提供高速、低延迟的互联网服务。自 2019 年起,Starlink 已部署数千颗卫星,旨在缩小全球数字鸿沟,推动互联网普及。该项目还为军事、航空等行业提供通信支持,带来广泛经济效益。
2D轨道图
3D轨道图
轨道高度分析图
轨道倾角分析图
轨道综合分析图
查看轨道综合分析图